�������l�o���
Date,Time,MP-1(��Sv/h),MP-2(��Sv/h),MP-3(��Sv/h),MP-4(��Sv/h),MP-5(��Sv/h),MP-6(��Sv/h),MP-7(��Sv/h),MP-8(��Sv/h),����,����(m/s),���J
2019/10/20,00:00,0.699,0.978,0.656,1.209,0.838,0.406,0.701,0.668,�k,2.3,��
2019/10/20,00:10,0.699,0.980,0.654,1.209,0.839,0.406,0.700,0.667,�k�k��,3.0,��
2019/10/20,00:20,0.700,0.979,0.655,1.209,0.839,0.405,0.700,0.668,�k��,4.9,��
2019/10/20,00:30,0.699,0.980,0.656,1.209,0.837,0.405,0.699,0.665,�k��,6.0,��
2019/10/20,00:40,0.698,0.979,0.656,1.210,0.838,0.405,0.702,0.667,�k��,4.5,��
2019/10/20,00:50,0.700,0.980,0.659,1.211,0.839,0.405,0.701,0.669,�k��,3.8,��
2019/10/20,01:00,0.702,0.979,0.656,1.212,0.840,0.405,0.702,0.669,�k�k��,3.0,��
2019/10/20,01:10,0.698,0.979,0.657,1.207,0.841,0.406,0.701,0.667,�k��,5.5,��
2019/10/20,01:20,0.698,0.979,0.657,1.211,0.841,0.407,0.702,0.667,�k��,6.4,��
2019/10/20,01:30,0.699,0.981,0.658,1.211,0.838,0.406,0.701,0.668,�k��,5.2,��
2019/10/20,01:40,0.699,0.980,0.657,1.210,0.838,0.407,0.702,0.667,�k,4.5,��
2019/10/20,01:50,0.699,0.981,0.657,1.213,0.841,0.405,0.702,0.667,�k,4.5,��
2019/10/20,02:00,0.699,0.980,0.657,1.211,0.841,0.405,0.702,0.667,�k,4.7,��
2019/10/20,02:10,0.700,0.979,0.655,1.214,0.839,0.405,0.701,0.670,�k,4.7,��
2019/10/20,02:20,0.699,0.978,0.658,1.213,0.841,0.405,0.703,0.668,�k�k��,4.3,��
2019/10/20,02:30,0.700,0.980,0.657,1.212,0.841,0.405,0.701,0.667,�k��,3.1,��
2019/10/20,02:40,0.698,0.981,0.658,1.212,0.844,0.405,0.703,0.667,�k�k��,2.5,��
2019/10/20,02:50,0.701,0.982,0.658,1.213,0.841,0.405,0.702,0.668,�k�k��,3.5,��
2019/10/20,03:00,0.701,0.983,0.659,1.213,0.842,0.405,0.702,0.670,�k�k��,4.1,��
2019/10/20,03:10,0.699,0.981,0.659,1.213,0.843,0.406,0.702,0.667,�k�k��,4.4,��
2019/10/20,03:20,0.701,0.982,0.659,1.213,0.843,0.406,0.701,0.669,�k�k��,4.6,��
2019/10/20,03:30,0.699,0.982,0.660,1.212,0.841,0.407,0.702,0.668,�k�k��,4.7,��
2019/10/20,03:40,0.701,0.982,0.657,1.213,0.843,0.406,0.701,0.669,�k�k��,5.2,��
2019/10/20,03:50,0.702,0.982,0.658,1.214,0.844,0.405,0.702,0.668,�k�k��,5.0,��
2019/10/20,04:00,0.699,0.983,0.659,1.210,0.843,0.404,0.703,0.668,�k�k��,3.3,��
2019/10/20,04:10,0.698,0.980,0.659,1.213,0.844,0.404,0.701,0.669,�k�k��,3.5,��
2019/10/20,04:20,0.697,0.984,0.659,1.213,0.845,0.403,0.703,0.668,�k,3.1,��
2019/10/20,04:30,0.698,0.983,0.657,1.212,0.842,0.406,0.701,0.667,�k,3.0,��
2019/10/20,04:40,0.697,0.983,0.658,1.214,0.843,0.404,0.701,0.667,�k,2.9,��
2019/10/20,04:50,0.699,0.982,0.659,1.215,0.844,0.405,0.702,0.668,�k,3.6,��
2019/10/20,05:00,0.699,0.983,0.658,1.213,0.843,0.405,0.703,0.668,�k,3.4,��
2019/10/20,05:10,0.701,0.981,0.661,1.213,0.843,0.404,0.701,0.668,�k,2.9,��
2019/10/20,05:20,0.700,0.984,0.660,1.214,0.845,0.405,0.703,0.669,�k,3.1,��
2019/10/20,05:30,0.699,0.985,0.657,1.216,0.843,0.405,0.704,0.669,�k,3.6,��
2019/10/20,05:40,0.697,0.984,0.659,1.213,0.845,0.406,0.703,0.669,�k,4.1,��
2019/10/20,05:50,0.700,0.984,0.659,1.212,0.845,0.405,0.702,0.668,�k,4.9,��
2019/10/20,06:00,0.700,0.984,0.660,1.215,0.845,0.406,0.704,0.668,�k,5.0,��
2019/10/20,06:10,0.698,0.984,0.659,1.214,0.845,0.405,0.703,0.668,�k,3.8,��
2019/10/20,06:20,0.699,0.984,0.658,1.214,0.842,0.404,0.702,0.669,�k,2.7,��
2019/10/20,06:30,0.698,0.985,0.659,1.214,0.846,0.406,0.701,0.668,�k,2.8,��
2019/10/20,06:40,0.700,0.982,0.659,1.213,0.845,0.406,0.702,0.669,�k�k��,3.8,��
2019/10/20,06:50,0.700,0.982,0.659,1.216,0.846,0.405,0.703,0.670,�k�k��,4.9,��
2019/10/20,07:00,0.700,0.986,0.660,1.215,0.847,0.405,0.703,0.670,�k�k��,6.4,��
2019/10/20,07:10,0.700,0.985,0.659,1.216,0.847,0.406,0.703,0.671,�k�k��,6.6,��
2019/10/20,07:20,0.701,0.987,0.660,1.216,0.846,0.407,0.702,0.670,�k�k��,5.3,��
2019/10/20,07:30,0.700,0.987,0.659,1.216,0.847,0.405,0.704,0.669,�k,5.2,��
2019/10/20,07:40,0.700,0.985,0.660,1.217,0.845,0.406,0.703,0.669,�k�k��,5.5,��
2019/10/20,07:50,0.701,0.988,0.659,1.214,0.848,0.405,0.706,0.669,�k,5.2,��
2019/10/20,08:00,0.701,0.987,0.660,1.217,0.848,0.406,0.703,0.669,�k,4.3,��
2019/10/20,08:10,0.702,0.982,0.660,1.217,0.847,0.406,0.703,0.670,�k,4.7,��
2019/10/20,08:20,0.701,0.986,0.660,1.218,0.846,0.406,0.704,0.669,�k,4.3,��
2019/10/20,08:30,0.701,0.986,0.661,1.216,0.846,0.405,0.703,0.670,�k�k��,5.2,��
2019/10/20,08:40,0.700,0.985,0.660,1.217,0.848,0.405,0.706,0.671,�k�k��,4.7,��
2019/10/20,08:50,0.701,0.988,0.659,1.218,0.849,0.405,0.705,0.670,�k�k��,6.1,��
2019/10/20,09:00,0.699,0.987,0.658,1.219,0.846,0.404,0.705,0.671,�k�k��,6.3,��
2019/10/20,09:10,0.701,0.987,0.661,1.220,0.848,0.404,0.706,0.670,�k,3.9,��
2019/10/20,09:20,0.700,0.988,0.659,1.220,0.850,0.406,0.708,0.669,�k�k��,5.3,��
2019/10/20,09:30,0.701,0.989,0.659,1.220,0.849,0.405,0.706,0.669,�k�k��,5.3,��
2019/10/20,09:40,0.700,0.987,0.660,1.223,0.849,0.405,0.707,0.670,�k�k��,5.7,��
2019/10/20,09:50,0.703,0.989,0.660,1.221,0.849,0.406,0.708,0.668,�k�k��,6.6,��
2019/10/20,10:00,0.702,0.989,0.662,1.222,0.850,0.404,0.705,0.668,�k�k��,5.5,��
2019/10/20,10:10,0.702,0.989,0.662,1.222,0.851,0.405,0.707,0.669,�k,4.5,��
2019/10/20,10:20,0.704,0.991,0.661,1.220,0.851,0.405,0.705,0.668,�k,5.2,��
2019/10/20,10:30,0.703,0.993,0.660,1.222,0.851,0.406,0.707,0.670,�k�k��,5.5,��
2019/10/20,10:40,0.703,0.992,0.659,1.221,0.853,0.405,0.707,0.670,�k,7.4,��
2019/10/20,10:50,0.703,0.992,0.661,1.222,0.853,0.406,0.707,0.670,�k�k��,6.9,��
2019/10/20,11:00,0.704,0.995,0.662,1.224,0.855,0.406,0.707,0.670,�k,8.0,��
2019/10/20,11:10,0.705,0.993,0.663,1.224,0.855,0.406,0.707,0.669,�k,8.0,��
2019/10/20,11:20,0.706,0.994,0.664,1.221,0.856,0.406,0.707,0.670,�k�k��,8.5,��
2019/10/20,11:30,0.704,0.993,0.664,1.223,0.854,0.405,0.707,0.670,�k�k��,7.7,��
2019/10/20,11:40,0.705,0.993,0.661,1.226,0.856,0.405,0.709,0.671,�k�k��,7.4,��
2019/10/20,11:50,0.705,0.998,0.663,1.225,0.857,0.406,0.709,0.670,�k�k��,7.4,��
2019/10/20,12:00,0.708,0.995,0.662,1.226,0.858,0.405,0.709,0.669,�k�k��,7.7,��
2019/10/20,12:10,0.706,0.998,0.667,1.226,0.856,0.405,0.708,0.671,�k,7.5,��
2019/10/20,12:20,0.707,0.998,0.666,1.226,0.859,0.406,0.708,0.669,�k,5.2,��
2019/10/20,12:30,0.706,0.994,0.664,1.226,0.857,0.407,0.710,0.670,�k,7.7,��
2019/10/20,12:40,0.708,0.997,0.665,1.226,0.859,0.407,0.711,0.671,�k,7.5,��
2019/10/20,12:50,0.707,1.000,0.666,1.225,0.860,0.407,0.710,0.671,�k,8.3,��
2019/10/20,13:00,0.707,0.998,0.663,1.228,0.859,0.407,0.709,0.670,�k�k��,8.0,��
2019/10/20,13:10,0.707,1.001,0.666,1.226,0.861,0.407,0.710,0.672,�k,8.8,��
2019/10/20,13:20,0.708,1.000,0.664,1.227,0.862,0.406,0.709,0.670,�k,8.5,��
2019/10/20,13:30,0.710,0.997,0.666,1.228,0.861,0.406,0.710,0.671,�k,8.0,��
2019/10/20,13:40,0.706,0.999,0.665,1.228,0.861,0.408,0.709,0.671,�k,8.3,��
2019/10/20,13:50,0.707,1.000,0.666,1.229,0.860,0.407,0.709,0.672,�k�k��,8.0,��
2019/10/20,14:00,0.707,1.000,0.665,1.229,0.862,0.407,0.710,0.671,�k�k��,8.2,��
2019/10/20,14:10,0.709,1.002,0.664,1.227,0.861,0.407,0.711,0.670,�k�k��,7.1,��
2019/10/20,14:20,0.708,0.999,0.665,1.228,0.858,0.406,0.708,0.672,�k,7.7,��
2019/10/20,14:30,0.707,1.001,0.665,1.231,0.860,0.407,0.711,0.672,�k�k��,7.2,��
2019/10/20,14:40,0.705,1.000,0.666,1.229,0.861,0.406,0.707,0.672,�k,8.3,��
2019/10/20,14:50,0.708,1.002,0.666,1.229,0.860,0.408,0.709,0.671,�k,7.2,��
2019/10/20,15:00,0.707,1.000,0.665,1.231,0.862,0.407,0.709,0.672,�k,7.1,��
2019/10/20,15:10,0.705,1.003,0.664,1.231,0.860,0.407,0.709,0.673,�k,6.1,��
2019/10/20,15:20,0.707,1.001,0.665,1.230,0.861,0.406,0.710,0.671,�k,6.6,��
2019/10/20,15:30,0.707,1.001,0.666,1.231,0.861,0.408,0.710,0.672,�k,6.4,��
2019/10/20,15:40,0.709,1.002,0.665,1.233,0.862,0.409,0.708,0.670,�k,6.7,��
2019/10/20,15:50,0.707,1.001,0.665,1.229,0.860,0.408,0.709,0.670,�k,7.2,��
2019/10/20,16:00,0.708,1.001,0.667,1.233,0.861,0.409,0.709,0.673,�k�k��,7.5,��
2019/10/20,16:10,0.706,1.001,0.665,1.230,0.859,0.408,0.708,0.672,�k,7.7,��
2019/10/20,16:20,0.708,1.002,0.665,1.231,0.863,0.409,0.709,0.672,�k,8.5,��
2019/10/20,16:30,0.707,1.003,0.665,1.228,0.864,0.409,0.709,0.673,�k,7.1,��
2019/10/20,16:40,0.706,1.002,0.666,1.230,0.862,0.409,0.709,0.671,�k,6.3,��
2019/10/20,16:50,0.706,1.001,0.665,1.231,0.863,0.409,0.708,0.674,�k,6.0,��
2019/10/20,17:00,0.706,1.003,0.664,1.230,0.863,0.408,0.711,0.673,�k�k��,7.7,��
2019/10/20,17:10,0.708,1.004,0.666,1.233,0.863,0.408,0.709,0.675,�k��,6.6,��
2019/10/20,17:20,0.708,1.006,0.667,1.232,0.864,0.409,0.710,0.674,�k��,6.6,��
2019/10/20,17:30,0.708,1.005,0.668,1.229,0.864,0.408,0.711,0.675,�k��,6.4,��
2019/10/20,17:40,0.708,1.005,0.668,1.232,0.866,0.407,0.711,0.673,�k��,5.3,��
2019/10/20,17:50,0.710,1.004,0.668,1.230,0.866,0.408,0.710,0.676,�k�k��,6.0,��
2019/10/20,18:00,0.708,1.003,0.669,1.232,0.866,0.407,0.710,0.675,�k�k��,5.0,��
2019/10/20,18:10,0.708,1.003,0.669,1.232,0.867,0.410,0.712,0.673,�k��,5.2,��
2019/10/20,18:20,0.709,1.004,0.667,1.231,0.864,0.408,0.711,0.674,�k��,5.7,��
2019/10/20,18:30,0.708,1.006,0.668,1.231,0.865,0.408,0.712,0.674,�k��,6.9,��
2019/10/20,18:40,0.710,1.004,0.667,1.230,0.866,0.407,0.711,0.676,���k��,5.7,��
2019/10/20,18:50,0.709,1.008,0.666,1.232,0.865,0.408,0.711,0.674,�k��,4.1,��
2019/10/20,19:00,0.706,1.003,0.666,1.234,0.865,0.407,0.711,0.674,�k�k��,3.5,��
2019/10/20,19:10,0.708,1.006,0.667,1.231,0.866,0.408,0.711,0.675,�k�k��,5.5,��
2019/10/20,19:20,0.711,1.003,0.667,1.233,0.865,0.409,0.710,0.674,�k�k��,5.7,��
2019/10/20,19:30,0.708,1.003,0.668,1.232,0.866,0.408,0.711,0.673,�k�k��,6.1,��
2019/10/20,19:40,0.708,1.003,0.668,1.233,0.865,0.408,0.711,0.675,�k��,7.4,��
2019/10/20,19:50,0.709,1.006,0.668,1.232,0.866,0.409,0.711,0.675,�k��,8.5,��
2019/10/20,20:00,0.709,1.007,0.669,1.233,0.865,0.410,0.710,0.674,�k��,7.5,��
2019/10/20,20:10,0.709,1.007,0.667,1.232,0.867,0.409,0.712,0.674,�k��,7.1,��
2019/10/20,20:20,0.709,1.007,0.668,1.233,0.864,0.408,0.710,0.675,�k��,6.6,��
2019/10/20,20:30,0.708,1.006,0.668,1.232,0.867,0.408,0.708,0.673,�k��,5.5,��
2019/10/20,20:40,0.708,1.002,0.669,1.235,0.865,0.407,0.709,0.674,�k��,4.9,��
2019/10/20,20:50,0.706,1.004,0.668,1.232,0.867,0.409,0.711,0.675,�k��,6.0,��
2019/10/20,21:00,0.708,1.006,0.668,1.232,0.866,0.408,0.710,0.674,�k��,6.0,��
2019/10/20,21:10,0.710,1.007,0.669,1.233,0.867,0.407,0.711,0.676,�k�k��,5.5,��
2019/10/20,21:20,0.707,1.004,0.667,1.234,0.866,0.408,0.712,0.674,�k��,5.8,��
2019/10/20,21:30,0.708,1.004,0.667,1.233,0.869,0.408,0.712,0.674,�k�k��,4.9,��
2019/10/20,21:40,0.709,1.007,0.667,1.232,0.866,0.408,0.711,0.673,�k�k��,4.4,��
2019/10/20,21:50,0.712,1.004,0.667,1.232,0.868,0.408,0.711,0.675,�k�k��,5.0,��
2019/10/20,22:00,0.709,1.005,0.668,1.234,0.867,0.409,0.711,0.674,�k��,4.2,��
2019/10/20,22:10,0.708,1.005,0.669,1.230,0.867,0.409,0.714,0.673,�k��,4.9,��
2019/10/20,22:20,0.708,1.005,0.669,1.232,0.868,0.408,0.712,0.675,�k�k��,3.4,��
2019/10/20,22:30,0.708,1.006,0.668,1.234,0.867,0.407,0.710,0.674,�k�k��,3.2,��
2019/10/20,22:40,0.709,1.008,0.667,1.234,0.868,0.408,0.712,0.675,�k�k��,2.9,��
2019/10/20,22:50,0.710,1.005,0.668,1.235,0.867,0.409,0.713,0.675,�k�k��,3.4,��
2019/10/20,23:00,0.709,1.006,0.668,1.235,0.867,0.406,0.710,0.675,�k��,2.4,��
2019/10/20,23:10,0.709,1.005,0.668,1.233,0.869,0.408,0.710,0.674,�k��,2.4,��
2019/10/20,23:20,0.708,1.007,0.668,1.235,0.868,0.408,0.711,0.675,�k��,2.3,��
2019/10/20,23:30,0.709,1.006,0.668,1.234,0.868,0.408,0.712,0.673,�k��,1.8,��
2019/10/20,23:40,0.709,1.004,0.666,1.234,0.868,0.408,0.711,0.674,�k�k��,1.8,��
2019/10/20,23:50,0.708,1.007,0.668,1.234,0.868,0.409,0.711,0.674,�k,1.7,��
